EDT,Max TemperatureF,Mean TemperatureF,Min TemperatureF,Max Dew PointF,MeanDew PointF,Min DewpointF,Max Humidity, Mean Humidity, Min Humidity, Max Sea Level PressureIn, Mean Sea Level PressureIn, Min Sea Level PressureIn, Max VisibilityMiles, Mean VisibilityMiles, Min VisibilityMiles, Max Wind SpeedMPH, Mean Wind SpeedMPH, Max Gust SpeedMPH,PrecipitationIn, CloudCover, Events, WindDirDegrees
2011-10-1,89,85,80,72,70,67,79,65,51,29.89,29.85,29.78,10,10,10,13,8,20,0.00,0,,334
2011-10-2,88,81,74,75,73,68,94,79,63,29.99,29.94,29.87,10,9,1,16,9,22,0.23,2,Rain-Thunderstorm,29
2011-10-3,85,80,75,78,75,72,94,82,70,30.07,30.02,29.95,10,6,1,20,9,28,1.45,6,Rain-Thunderstorm,77
2011-10-4,85,82,78,75,72,69,91,78,65,30.08,30.03,29.99,10,10,10,24,15,29,T,3,Rain,57
2011-10-5,86,82,77,71,69,65,79,68,57,30.05,30.01,29.97,10,10,10,18,14,24,0.00,1,,45
2011-10-6,86,81,76,73,71,68,85,75,65,30.01,29.97,29.94,10,10,10,23,15,30,T,1,,45
2011-10-7,83,80,76,78,73,69,100,85,69,30.01,29.98,29.94,10,9,1,18,12,25,0.22,3,Rain,63
2011-10-8,80,74,68,75,73,69,100,88,76,29.97,29.92,29.83,10,8,0,24,12,36,2.32,5,Rain-Thunderstorm,51
2011-10-9,83,79,74,76,74,72,94,87,79,29.85,29.81,29.75,10,8,1,20,5,24,0.73,4,Rain-Thunderstorm,52
2011-10-10,88,81,74,76,74,73,94,81,68,29.86,29.81,29.77,10,10,8,8,2,10,0.00,1,,218
2011-10-11,86,81,75,77,75,73,94,84,74,29.88,29.83,29.79,10,10,10,7,3,9,0.00,3,,347
2011-10-12,87,81,75,77,75,73,100,85,70,29.90,29.85,29.80,10,10,8,6,1,9,0.00,3,,12
2011-10-13,88,83,77,76,75,74,91,80,68,29.85,29.81,29.76,10,10,10,7,3,12,0.00,1,Thunderstorm,184
2011-10-14,84,81,78,75,74,72,91,80,69,29.93,29.86,29.79,10,10,10,14,7,16,0.00,1,,56
2011-10-15,81,77,73,76,74,71,100,91,82,30.01,29.95,29.88,10,6,1,23,12,30,1.53,6,Rain-Thunderstorm,68
2011-10-16,82,78,74,75,74,71,100,87,74,29.99,29.94,29.90,10,7,1,28,13,35,0.96,7,Rain,75
2011-10-17,80,77,73,76,74,72,100,94,87,29.94,29.89,29.83,10,5,0,20,12,28,3.37,8,Fog-Rain-Thunderstorm,76
2011-10-18,83,78,73,79,75,73,94,87,79,29.82,29.76,29.68,10,8,0,16,10,29,2.36,5,Fog-Rain-Thunderstorm,112
2011-10-19,82,77,72,79,74,65,100,85,69,29.92,29.74,29.65,10,6,0,20,10,31,4.66,7,Fog-Rain-Thunderstorm,257
2011-10-20,81,76,71,64,61,58,73,63,52,30.08,30.00,29.92,10,10,10,16,9,23,0.00,4,,341
2011-10-21,78,74,69,61,58,55,73,60,47,30.11,30.05,30.01,10,10,10,17,12,23,0.00,1,,25
2011-10-22,78,73,67,67,61,55,84,71,58,30.01,29.96,29.91,10,10,10,15,7,21,0.00,1,,2
2011-10-23,80,75,70,73,68,64,90,81,71,29.98,29.93,29.89,10,10,10,13,8,17,T,5,Rain,352
2011-10-24,81,78,74,70,68,63,87,76,64,30.06,30.00,29.95,10,10,10,16,10,23,0.00,4,,354
2011-10-25,82,77,71,71,66,60,82,73,64,30.08,30.03,30.00,10,10,10,21,13,25,0.00,3,,35
2011-10-26,83,80,76,73,71,70,87,76,65,30.02,29.97,29.92,10,10,10,17,10,23,T,4,,55
2011-10-27,84,81,77,76,74,70,91,81,70,29.94,29.90,29.85,10,10,6,14,8,18,0.01,2,Rain,84
2011-10-28,88,82,76,79,77,73,91,83,75,29.91,29.86,29.81,10,9,1,14,6,23,0.36,3,Rain-Thunderstorm,133
2011-10-29,87,82,76,79,76,73,97,86,75,29.90,29.84,29.80,10,9,2,15,7,24,0.13,2,Rain-Thunderstorm,207
2011-10-30,83,79,75,76,74,72,94,84,74,29.99,29.93,29.87,10,10,8,21,11,25,T,6,Rain,49
2011-10-31,85,79,73,79,75,71,100,87,74,29.99,29.95,29.89,10,7,0,17,8,30,2.01,6,Fog-Rain-Thunderstorm,167